Location: Camp Roosevelt
(41.7914°N, 81.1673°W)
Time: 18:46:08
(UTC+00:00)

Lacrosse 5 - Pass Details

Date: 29 October 2020
Orbit: 716 x 723 km, 57.0° (Epoch: 06 November)

Event Time Altitude Azimuth Distance (km) Brightness Sun altitude
Rises 23:07:58 0° 305° (NW) 3,122 5.9 -9.1°
Reaches altitude 10° 23:11:32 10° 330° (NNW) 2,202 4.6 -9.8°
Maximum altitude 23:14:11 14° 2° (N) 1,935 4.0 -10.3°
Drops below altitude 10° 23:16:51 10° 34° (NE) 2,203 4.0 -10.7°
Enters shadow 23:17:47 - 43° (NE) 2,403 4.1 -10.9°
